Voltar ao catálogo

CZ-2D R/B

AtivoSSO
NORAD 37932·ROCKET BODY·🇨🇳 China

Lançado Nov 20, 2011 de Jiuquan Satellite Launch Center

Loading…

Próximas Passagens (próximas 24 horas)

TLE

AtualizadoSource: Space-Track

Época: Sep 14, 2026, 15:39 UTC

1 37932U 11068C   26257.65219932  .00000091  00000-0  60101-4 0  9991
2 37932  98.9001 214.0641 0036727   3.2417 169.4719 14.23046442769204

Acompanhe CZ-2D R/B em tempo real com AllMySat

Download on the App Store